Pocatello, ID

11:33 PM MST on January 22, 2018 (GMT -0700)
Pocatello Regional

Weather History for KPIH - April, 2014

Change the Weather History Date:

Wednesday, April 23, 2014

  Actual Average Record
Temperature  
Mean Temperature 44 °F 47 °F  
Max Temperature 54 °F 61 °F 86 °F (2012)
Min Temperature 33 °F 34 °F 17 °F (2013)
Degree Days  
Heating Degree Days 21 18  
Month to date heating degree days 413 466  
Since 1 July heating degree days 6124 6578  
Cooling Degree Days 0 0  
Month to date cooling degree days 0 0  
Year to date cooling degree days 0 0  
Moisture  
Dew Point 26 °F    
Average Humidity 58    
Maximum Humidity 85    
Minimum Humidity 30    
Precipitation  
Precipitation T in 0.04 in 0.55 in (1964)
Month to date precipitation 0.83 0.84  
Year to date precipitation 4.83 4.06  
Snow  
Snow T in - - ()
Month to date snowfall 3.3  
Since 1 July snowfall 29.4  
Snow Depth 0.00 in    
Sea Level Pressure  
Sea Level Pressure 29.96 in    
Wind  
Wind Speed 20 mph (SW)    
Max Wind Speed 33 mph    
Max Gust Speed 40 mph    
Visibility 10 miles    
Events Snow    
T = Trace of Precipitation, MM = Missing Value Source: NWS Daily Summary

Daily Weather History Graph

Daily Weather History Graph

Search for Another Location

Airport or City:

Trip Planner

Search our weather history database for the weather conditions in past years. The results will help you decide how hot, cold, wet, or windy it might be!

Date:

Astronomy

Apr. 23, 2014 Rise Set
Actual Time 6:35 AM MDT 8:22 PM MDT
Civil Twilight 6:05 AM MDT 8:52 PM MDT
Nautical Twilight 5:29 AM MDT 9:29 PM MDT
Astronomical Twilight 4:49 AM MDT 10:09 PM MDT
Moon 3:19 AM MDT 2:26 PM MDT
Length of Visible Light 14h 46m
Length of Day
13h 46m
Waning Crescent, 34% of the Moon is Illuminated
Apr 23
Waning Crescent
Apr 29
New
May 6
First Quarter
May 14
Full
May 21
Last Quarter

Hourly Weather History & Observations

Time (MDT) Temp. Windchill Dew Point Humidity Pressure Visibility Wind Dir Wind Speed Gust Speed Precip Events Conditions
12:53 AM 37.9 °F 27.3 °F 34.0 °F 86% 29.77 in 10.0 mi SSW 21.9 mph 33.4 mph N/A   Overcast
1:53 AM 37.9 °F 27.6 °F 33.1 °F 83% 29.78 in 10.0 mi SW 20.7 mph 31.1 mph N/A   Overcast
2:53 AM 37.0 °F 27.0 °F 30.9 °F 79% 29.83 in 10.0 mi SSW 18.4 mph 28.8 mph N/A   Overcast
3:53 AM 36.0 °F 24.4 °F 28.9 °F 76% 29.86 in 10.0 mi SW 23.0 mph - N/A   Partly Cloudy
4:53 AM 35.1 °F 25.5 °F 27.0 °F 72% 29.88 in 10.0 mi SSW 15.0 mph 27.6 mph N/A   Clear
5:53 AM 34.0 °F 21.8 °F 27.0 °F 75% 29.89 in 10.0 mi WSW 23.0 mph - N/A   Clear
6:53 AM 34.0 °F 22.1 °F 26.1 °F 73% 29.94 in 10.0 mi SW 21.9 mph - N/A   Scattered Clouds
7:53 AM 36.0 °F 24.7 °F 28.0 °F 73% 29.98 in 10.0 mi WSW 21.9 mph - N/A   Mostly Cloudy
8:53 AM 35.1 °F 24.1 °F 30.0 °F 82% 30.01 in 10.0 mi WSW 19.6 mph - 0.00 in Snow Light Snow
9:53 AM 39.9 °F 30.5 °F 28.9 °F 65% 30.00 in 10.0 mi WSW 19.6 mph - 0.00 in   Scattered Clouds
10:53 AM 42.8 °F 35.1 °F 28.4 °F 57% 29.99 in 10.0 mi West 16.1 mph - N/A   Scattered Clouds
11:53 AM 46.0 °F 38.3 °F 26.1 °F 46% 29.99 in 10.0 mi WSW 20.7 mph 27.6 mph N/A   Scattered Clouds
12:53 PM 48.9 °F - 23.0 °F 36% 29.98 in 10.0 mi West 23.0 mph 29.9 mph N/A   Scattered Clouds
1:53 PM 50.0 °F - 24.8 °F 37% 29.99 in 10.0 mi WSW 24.2 mph - N/A   Scattered Clouds
2:53 PM 50.0 °F - 21.0 °F 32% 29.98 in 10.0 mi WSW 27.6 mph 34.5 mph N/A   Mostly Cloudy
3:53 PM 51.1 °F - 21.0 °F 31% 29.97 in 10.0 mi West 27.6 mph 36.8 mph N/A   Mostly Cloudy
4:53 PM 52.0 °F - 21.0 °F 30% 29.97 in 10.0 mi WSW 28.8 mph 38.0 mph N/A   Mostly Cloudy
5:53 PM 50.0 °F - 23.0 °F 35% 29.99 in 10.0 mi WSW 27.6 mph - N/A   Mostly Cloudy
6:53 PM 48.9 °F - 24.1 °F 38% 30.00 in 10.0 mi WSW 20.7 mph - N/A   Scattered Clouds
7:53 PM 46.9 °F - 25.0 °F 42% 30.01 in 10.0 mi SW 13.8 mph - N/A   Scattered Clouds
8:53 PM 43.0 °F 37.2 °F 27.0 °F 53% 30.03 in 10.0 mi South 10.4 mph - N/A   Partly Cloudy
9:53 PM 41.0 °F 34.7 °F 27.0 °F 57% 30.04 in 10.0 mi SSW 10.4 mph - N/A   Clear
10:53 PM 41.0 °F 33.9 °F 27.0 °F 57% 30.03 in 10.0 mi South 12.7 mph - N/A   Clear
11:53 PM 42.1 °F 34.5 °F 26.1 °F 53% 30.02 in 10.0 mi SSW 15.0 mph - N/A   Clear